Weather History for Silver City, NM

Change the Weather History Date:

Wednesday, October 30, 2013

  Actual Average (KDMN) Record (KDMN)
Temperature  
Mean Temperature 48 °F 56 °F  
Max Temperature 62 °F 72 °F 86 °F (2010)
Min Temperature 33 °F 40 °F 26 °F (1967)
Degree Days  
Heating Degree Days 18    
Moisture  
Dew Point 27 °F    
Average Humidity 46    
Maximum Humidity 75    
Minimum Humidity 29    
Precipitation  
Precipitation 0.00 in 0.02 in 0.58 in (1959)
Month to date precipitation 1.03  
Year to date precipitation 9.92  
Sea Level Pressure  
Sea Level Pressure 30.03 in    
Wind  
Wind Speed 10 mph (NW)    
Max Wind Speed 26 mph    
Max Gust Speed 39 mph    
Visibility 10 miles    
Events Thunderstorm    
T = Trace of Precipitation, MM = Missing Value Source: NWS Daily Summary

Daily Weather History Graph

Daily Weather History Graph

Search for Another Location

Airport:

Trip Planner

Search our weather history database for the weather conditions in past years. The results will help you decide how hot, cold, wet, or windy it might be!

Date:

Astronomy

Oct. 30, 2013 Rise Set
Actual Time 7:28 AM MDT 6:23 PM MDT
Civil Twilight 7:03 AM MDT 6:48 PM MDT
Nautical Twilight 6:34 AM MDT 7:17 PM MDT
Astronomical Twilight 6:05 AM MDT 7:46 PM MDT
Moon 3:33 AM MDT (10/30) 3:59 PM MDT (10/30)
Length of Visible Light 11h 45m
Length of Day
10h 54m
Waning Crescent, 16% of the Moon is Illuminated
Oct 30
Waning Crescent
Nov 3
New
Nov 9
First Quarter
Nov 17
Full
Nov 25
Last Quarter

Hourly Weather History & Observations

Time (MDT) Temp. Windchill Dew Point Humidity Pressure Visibility Wind Dir Wind Speed Gust Speed Precip Events Conditions
12:15 AM 42.8 °F 37.5 °F 19.4 °F 39% 30.05 in 10.0 mi NW 9.2 mph - N/A Thunderstorm Clear
12:35 AM 44.6 °F 38.8 °F 23.0 °F 43% 30.04 in 10.0 mi NW 11.5 mph - N/A   Clear
12:55 AM 44.6 °F 40.7 °F 24.8 °F 46% 30.04 in 10.0 mi NW 6.9 mph - N/A   Clear
1:15 AM 39.2 °F 33.6 °F 23.0 °F 52% 30.04 in 10.0 mi NW 8.1 mph - N/A   Clear
1:35 AM 37.4 °F 31.4 °F 23.0 °F 56% 30.04 in 10.0 mi NW 8.1 mph - N/A Thunderstorm Clear
1:55 AM 39.2 °F 33.6 °F 23.0 °F 52% 30.04 in 10.0 mi NNW 8.1 mph - N/A   Clear
2:15 AM 39.2 °F 33.6 °F 24.8 °F 56% 30.05 in 10.0 mi North 8.1 mph - N/A   Clear
2:35 AM 41.0 °F 35.8 °F 24.8 °F 53% 30.04 in 10.0 mi NE 8.1 mph - N/A   Scattered Clouds
2:55 AM 42.8 °F 40.1 °F 24.8 °F 49% 30.04 in 10.0 mi NNE 4.6 mph - N/A   Mostly Cloudy
3:15 AM 41.0 °F 38.0 °F 24.8 °F 53% 30.04 in 10.0 mi NNE 4.6 mph - N/A   Partly Cloudy
3:35 AM 39.2 °F 37.0 °F 24.8 °F 56% 30.04 in 10.0 mi NNW 3.5 mph - N/A   Clear
3:55 AM 35.6 °F 29.9 °F 23.0 °F 60% 30.03 in 10.0 mi NW 6.9 mph - N/A   Clear
4:15 AM 35.6 °F 29.9 °F 24.8 °F 65% 30.03 in 10.0 mi NW 6.9 mph - N/A   Clear
4:35 AM 33.8 °F 28.6 °F 23.0 °F 65% 30.02 in 10.0 mi NW 5.8 mph - N/A Thunderstorm Clear
4:55 AM 33.8 °F 27.0 °F 24.8 °F 70% 30.02 in 10.0 mi NW 8.1 mph - N/A   Clear
5:15 AM 33.8 °F 27.7 °F 24.8 °F 70% 30.02 in 10.0 mi NW 6.9 mph - N/A Thunderstorm Clear
5:35 AM 35.6 °F 29.9 °F 26.6 °F 70% 30.03 in 10.0 mi NNW 6.9 mph - N/A   Clear
5:55 AM 35.6 °F 29.2 °F 26.6 °F 70% 30.03 in 10.0 mi NNW 8.1 mph - N/A   Clear
6:15 AM 35.6 °F 29.2 °F 26.6 °F 70% 30.03 in 10.0 mi NNW 8.1 mph - N/A   Clear
6:35 AM 35.6 °F 29.2 °F 26.6 °F 70% 30.04 in 10.0 mi NNW 8.1 mph - N/A   Clear
6:55 AM 35.6 °F 29.2 °F 26.6 °F 70% 30.04 in 10.0 mi North 8.1 mph - N/A   Clear
7:15 AM 33.8 °F 27.0 °F 26.6 °F 75% 30.04 in 10.0 mi North 8.1 mph - N/A   Clear
7:35 AM 35.6 °F 28.6 °F 26.6 °F 70% 30.04 in 10.0 mi North 9.2 mph - N/A Thunderstorm Clear
7:55 AM 37.4 °F 32.1 °F 28.4 °F 70% 30.04 in 10.0 mi North 6.9 mph - N/A   Clear
8:15 AM 41.0 °F 37.1 °F 30.2 °F 65% 30.05 in 10.0 mi North 5.8 mph - N/A   Clear
8:35 AM 44.6 °F 42.2 °F 32.0 °F 61% 30.05 in 10.0 mi NNE 4.6 mph - N/A Thunderstorm Clear
8:55 AM 48.2 °F - 32.0 °F 54% 30.05 in 10.0 mi North 5.8 mph - N/A   Clear
9:15 AM 50.0 °F - 33.8 °F 54% 30.06 in 10.0 mi North 3.5 mph - N/A   Clear
9:35 AM 53.6 °F - 35.6 °F 51% 30.07 in 10.0 mi Calm Calm - N/A   Clear
9:55 AM 55.4 °F - 37.4 °F 51% 30.06 in 10.0 mi SSW 4.6 mph - N/A   Clear
10:15 AM 57.2 °F - 37.4 °F 48% 30.06 in 10.0 mi SSW 6.9 mph - N/A Thunderstorm Scattered Clouds
10:35 AM 55.4 °F - 37.4 °F 51% 30.05 in 10.0 mi SSW 13.8 mph - N/A   Mostly Cloudy
10:55 AM 55.4 °F - 37.4 °F 51% 30.05 in 10.0 mi WSW 16.1 mph 20.7 mph N/A   Scattered Clouds
11:15 AM 55.4 °F - 37.4 °F 51% 30.05 in 10.0 mi WSW 15.0 mph 19.6 mph N/A   Clear
11:35 AM 57.2 °F - 33.8 °F 41% 30.04 in 10.0 mi SW 11.5 mph 19.6 mph N/A   Partly Cloudy
11:55 AM 59.0 °F - 32.0 °F 36% 30.03 in 10.0 mi WSW 12.7 mph 17.3 mph N/A   Partly Cloudy
12:15 PM 62.6 °F - 32.0 °F 32% 30.03 in 10.0 mi WSW 12.7 mph 18.4 mph N/A   Partly Cloudy
12:35 PM 62.6 °F - 30.2 °F 30% 30.02 in 10.0 mi West 19.6 mph 25.3 mph N/A   Scattered Clouds
12:55 PM 62.6 °F - 30.2 °F 30% 30.02 in 10.0 mi WSW 16.1 mph 34.5 mph N/A Thunderstorm Scattered Clouds
1:15 PM 62.6 °F - 30.2 °F 30% 30.00 in 10.0 mi WSW 20.7 mph 29.9 mph N/A   Partly Cloudy
1:35 PM 62.6 °F - 32.0 °F 32% 29.99 in 10.0 mi WSW 15.0 mph 31.1 mph N/A   Clear
1:55 PM 62.6 °F - 32.0 °F 32% 29.98 in 10.0 mi West 18.4 mph 35.7 mph N/A   Scattered Clouds
2:15 PM 62.6 °F - 32.0 °F 32% 29.98 in 10.0 mi West 15.0 mph 27.6 mph N/A   Scattered Clouds
2:35 PM 60.8 °F - 32.0 °F 34% 29.97 in 10.0 mi WSW 15.0 mph 19.6 mph N/A   Clear
2:55 PM 60.8 °F - 33.8 °F 36% 29.96 in 10.0 mi WSW 9.2 mph 19.6 mph N/A   Scattered Clouds
3:15 PM 62.6 °F - 32.0 °F 32% 29.95 in 10.0 mi West 23.0 mph 28.8 mph N/A   Mostly Cloudy
3:35 PM 62.6 °F - 32.0 °F 32% 29.94 in 10.0 mi West 24.2 mph 29.9 mph N/A Thunderstorm Partly Cloudy
3:55 PM 62.6 °F - 32.0 °F 32% 29.95 in 10.0 mi West 18.4 mph 29.9 mph N/A   Clear
4:15 PM 62.6 °F - 32.0 °F 32% 29.95 in 10.0 mi West 21.9 mph 32.2 mph N/A   Clear
4:35 PM 62.6 °F - 30.2 °F 30% 29.95 in 10.0 mi West 19.6 mph 34.5 mph N/A   Clear
4:55 PM 60.8 °F - 28.4 °F 29% 29.95 in 10.0 mi West 26.5 mph 36.8 mph N/A   Clear
5:15 PM 59.0 °F - 28.4 °F 31% 29.96 in 10.0 mi West 21.9 mph 39.1 mph N/A   Clear
6:55 PM 53.6 °F - 26.6 °F 35% 29.99 in 10.0 mi WNW 17.3 mph 24.2 mph N/A   Clear
7:15 PM 53.6 °F - 26.6 °F 35% 30.00 in 10.0 mi WNW 20.7 mph 26.5 mph N/A   Clear
7:35 PM 51.8 °F - 24.8 °F 35% 30.01 in 10.0 mi NW 19.6 mph - N/A   Clear
7:55 PM 50.0 °F - 23.0 °F 35% 30.02 in 10.0 mi WNW 19.6 mph 25.3 mph N/A   Clear
8:15 PM 48.2 °F - 23.0 °F 37% 30.03 in 10.0 mi NW 15.0 mph - N/A Thunderstorm Clear
8:35 PM 48.2 °F - 17.6 °F 30% 30.05 in 10.0 mi NNW 12.7 mph - N/A   Clear
8:55 PM 46.4 °F 41.1 °F 17.6 °F 32% 30.05 in 10.0 mi NNW 11.5 mph - N/A   Clear
9:15 PM 44.6 °F 38.4 °F 17.6 °F 34% 30.05 in 10.0 mi NW 12.7 mph - N/A   Clear
9:35 PM 41.0 °F 33.9 °F 15.8 °F 36% 30.04 in 10.0 mi WNW 12.7 mph - N/A   Clear
9:55 PM 41.0 °F 33.9 °F 15.8 °F 36% 30.05 in 10.0 mi WNW 12.7 mph - N/A   Clear
10:15 PM 44.6 °F 38.1 °F 15.8 °F 31% 30.06 in 10.0 mi WNW 13.8 mph - N/A Thunderstorm Clear
10:35 PM 42.8 °F 36.6 °F 15.8 °F 34% 30.07 in 10.0 mi WNW 11.5 mph - N/A   Clear
10:55 PM 39.2 °F 33.6 °F 15.8 °F 39% 30.07 in 10.0 mi NW 8.1 mph - N/A   Clear
11:15 PM 37.4 °F 30.3 °F 17.6 °F 45% 30.07 in 10.0 mi North 10.4 mph - N/A   Clear
11:35 PM 39.2 °F 33.6 °F 17.6 °F 42% 30.07 in 10.0 mi NNW 8.1 mph - N/A   Clear
11:55 PM 37.4 °F 29.8 °F 17.6 °F 45% 30.07 in 10.0 mi North 11.5 mph - N/A   Clear